Change the Weather History Date:

Monday, February 17, 2014

  Actual Average (KDTO) Record (KDTO)
Temperature  
Mean Temperature 62 °F -  
Max Temperature 69 °F 58 °F 79 °F (2011)
Min Temperature 54 °F 37 °F 24 °F (2003)
Degree Days  
Heating Degree Days 4    
Growing Degree Days 12 (Base 50)    
Moisture  
Dew Point 33 °F    
Average Humidity 40    
Maximum Humidity 85    
Minimum Humidity 16    
Precipitation  
Precipitation 0.00 in - - ()
Sea Level Pressure  
Sea Level Pressure 30.05 in    
Wind  
Wind Speed 10 mph (NNW)    
Max Wind Speed 24 mph    
Max Gust Speed 36 mph    
Visibility 10 miles    
Events      
Averages and records for this station are not official NWS values.
T = Trace of Precipitation, MM = Missing Value Source: NWS Daily Summary

Daily Weather History Graph

Daily Weather History Graph

Search for Another Location

Airport or City:

Trip Planner

Search our weather history database for the weather conditions in past years. The results will help you decide how hot, cold, wet, or windy it might be!

Date:

Astronomy

Feb. 17, 2014 Rise Set
Actual Time 7:11 AM CST 6:17 PM CST
Civil Twilight 6:46 AM CST 6:42 PM CST
Nautical Twilight 6:17 AM CST 7:11 PM CST
Astronomical Twilight 5:48 AM CST 7:40 PM CST
Moon 9:01 PM CST (2/17) 8:23 AM CST (2/17)
Length of Visible Light 11h 55m
Length of Day
11h 05m
Waning Gibbous, 93% of the Moon is Illuminated
Feb 17
Waning Gibbous
Feb 22
Last Quarter
Mar 1
New
Mar 8
First Quarter
Mar 16
Full

Hourly Weather History & Observations

Time (CST) Temp. Dew Point Humidity Pressure Visibility Wind Dir Wind Speed Gust Speed Precip Events Conditions
12:15 AM 61.7 °F 57.2 °F 85% 29.85 in 7.0 mi South 11.5 mph 18.4 mph N/A   Clear
12:35 AM 61.9 °F 57.2 °F 85% 29.85 in 7.0 mi South 9.2 mph - N/A   Clear
12:55 AM 61.9 °F 57.0 °F 84% 29.84 in 7.0 mi South 10.4 mph - N/A   Clear
1:15 AM 61.9 °F 56.7 °F 83% 29.84 in 7.0 mi South 11.5 mph - N/A   Clear
1:35 AM 62.2 °F 56.5 °F 81% 29.84 in 7.0 mi South 11.5 mph - N/A   Clear
1:55 AM 61.7 °F 56.1 °F 82% 29.84 in 10.0 mi SSW 9.2 mph - N/A   Clear
2:15 AM 61.5 °F 55.6 °F 81% 29.84 in 10.0 mi SSW 8.1 mph - N/A   Clear
2:35 AM 61.9 °F 55.4 °F 79% 29.84 in 10.0 mi SSW 9.2 mph - N/A   Clear
2:55 AM 62.4 °F 55.0 °F 77% 29.84 in 10.0 mi SSW 12.7 mph 17.3 mph N/A   Clear
3:15 AM 63.0 °F 55.2 °F 76% 29.84 in 10.0 mi SW 10.4 mph - N/A   Clear
3:35 AM 62.4 °F 54.9 °F 76% 29.84 in 10.0 mi SW 10.4 mph - N/A   Clear
3:55 AM 62.1 °F 55.0 °F 78% 29.84 in 10.0 mi SSW 11.5 mph - N/A   Clear
4:15 AM 61.9 °F 54.9 °F 78% 29.87 in 10.0 mi WSW 6.9 mph - N/A   Clear
4:35 AM 61.0 °F 54.5 °F 79% 29.87 in 10.0 mi SW 6.9 mph - N/A   Clear
4:55 AM 60.3 °F 54.5 °F 81% 29.87 in 7.0 mi SW 10.4 mph - N/A   Clear
5:15 AM 60.4 °F 54.5 °F 81% 29.88 in 10.0 mi WSW 9.2 mph - N/A   Clear
5:35 AM 59.4 °F 54.1 °F 83% 29.88 in 10.0 mi SW 6.9 mph - N/A   Clear
5:55 AM 59.2 °F 54.3 °F 84% 29.92 in 10.0 mi West 9.2 mph - N/A   Clear
6:15 AM 59.2 °F 53.8 °F 82% 29.94 in 10.0 mi West 10.4 mph - N/A   Clear
6:35 AM 58.5 °F 52.3 °F 80% 29.97 in 10.0 mi NW 10.4 mph - N/A   Clear
6:55 AM 58.6 °F 44.8 °F 60% 29.98 in 10.0 mi NNW 15.0 mph 18.4 mph N/A   Clear
7:15 AM 59.4 °F 37.4 °F 44% 30.00 in 10.0 mi North 13.8 mph 25.3 mph N/A   Clear
7:35 AM 58.6 °F 34.9 °F 41% 30.01 in 10.0 mi North 16.1 mph 29.9 mph N/A   Clear
7:55 AM 58.5 °F 32.0 °F 37% 30.03 in 10.0 mi North 19.6 mph 28.8 mph N/A   Clear
8:15 AM 59.0 °F 29.7 °F 33% 30.05 in 10.0 mi North 12.7 mph 31.1 mph N/A   Clear
8:35 AM 58.5 °F 27.3 °F 30% 30.07 in 10.0 mi NNW 17.3 mph 25.3 mph N/A   Clear
8:55 AM 59.7 °F 25.0 °F 26% 30.08 in 10.0 mi NNW 20.7 mph 31.1 mph N/A   Clear
9:15 AM 61.2 °F 23.9 °F 24% 30.10 in 10.0 mi NNW 15.0 mph 29.9 mph N/A   Clear
9:35 AM 62.2 °F 23.2 °F 22% 30.10 in 10.0 mi North 19.6 mph 28.8 mph N/A   Clear
9:55 AM 63.0 °F 21.4 °F 20% 30.12 in 10.0 mi North 24.2 mph 35.7 mph N/A   Clear
10:15 AM 63.3 °F 21.4 °F 20% 30.12 in 10.0 mi North 21.9 mph 32.2 mph N/A   Clear
10:35 AM 64.0 °F 22.6 °F 21% 30.14 in 10.0 mi NNW 15.0 mph 23.0 mph N/A   Clear
10:55 AM 65.3 °F 22.8 °F 20% 30.14 in 10.0 mi NNW 17.3 mph 25.3 mph N/A   Clear
11:15 AM 65.7 °F 22.3 °F 19% 30.14 in 10.0 mi North 17.3 mph 21.9 mph N/A   Clear
11:35 AM 66.6 °F 23.0 °F 19% 30.15 in 10.0 mi NNW 12.7 mph 24.2 mph N/A   Clear
11:55 AM 67.5 °F 23.5 °F 19% 30.14 in 10.0 mi North 10.4 mph 17.3 mph N/A   Clear
12:15 PM 66.6 °F 22.3 °F 19% 30.14 in 10.0 mi NNW 9.2 mph 21.9 mph N/A   Clear
12:35 PM 68.0 °F 22.6 °F 18% 30.14 in 10.0 mi North 17.3 mph 24.2 mph N/A   Clear
12:55 PM 68.5 °F 22.6 °F 18% 30.13 in 10.0 mi North 11.5 mph 18.4 mph N/A   Clear
1:15 PM 69.8 °F 23.2 °F 17% 30.12 in 10.0 mi North 13.8 mph 18.4 mph N/A   Clear
1:35 PM 69.3 °F 21.6 °F 16% 30.12 in 10.0 mi NNW 9.2 mph 17.3 mph N/A   Clear
1:55 PM 69.8 °F 21.9 °F 16% 30.11 in 10.0 mi North 11.5 mph 19.6 mph N/A   Clear
2:15 PM 69.6 °F 21.6 °F 16% 30.11 in 10.0 mi North 13.8 mph 17.3 mph N/A   Clear
2:35 PM 69.6 °F 22.5 °F 17% 30.11 in 10.0 mi NNW 11.5 mph - N/A   Clear
2:55 PM 68.9 °F 20.1 °F 16% 30.11 in 10.0 mi NNW 9.2 mph - N/A   Clear
3:15 PM 68.9 °F 21.6 °F 17% 30.11 in 10.0 mi North 9.2 mph - N/A   Clear
3:35 PM 68.9 °F 21.2 °F 16% 30.11 in 10.0 mi NE 6.9 mph - N/A   Clear
3:55 PM 68.2 °F 21.4 °F 17% 30.12 in 10.0 mi NNE 8.1 mph - N/A   Clear
4:15 PM 68.5 °F 20.8 °F 16% 30.12 in 10.0 mi NNE 8.1 mph - N/A   Clear
4:35 PM 68.0 °F 20.7 °F 17% 30.12 in 10.0 mi NNE 5.8 mph - N/A   Clear
4:55 PM 67.8 °F 20.7 °F 17% 30.13 in 10.0 mi North 5.8 mph - N/A   Clear
5:15 PM 66.7 °F 22.3 °F 18% 30.13 in 10.0 mi North 3.5 mph - N/A   Clear
5:35 PM 65.5 °F 23.7 °F 21% 30.13 in 10.0 mi North 3.5 mph - N/A   Clear
5:55 PM 64.8 °F 22.1 °F 20% 30.14 in 10.0 mi Calm Calm - N/A   Clear
6:15 PM 63.3 °F 22.8 °F 21% 30.14 in 10.0 mi Calm Calm - N/A   Clear
6:35 PM 60.4 °F 24.6 °F 25% 30.14 in 10.0 mi NNW 3.5 mph - N/A   Clear
6:55 PM 59.2 °F 24.8 °F 27% 30.15 in 10.0 mi Calm Calm - N/A   Clear
7:15 PM 58.5 °F 24.6 °F 27% 30.15 in 10.0 mi North 3.5 mph - N/A   Clear
7:35 PM 57.9 °F 23.9 °F 27% 30.15 in 10.0 mi North 4.6 mph - N/A   Clear
7:55 PM 57.4 °F 23.9 °F 28% 30.16 in 10.0 mi North 5.8 mph - N/A   Clear
8:15 PM 56.3 °F 23.9 °F 29% 30.15 in 10.0 mi North 4.6 mph - N/A   Clear
8:35 PM 56.1 °F 23.9 °F 29% 30.15 in 10.0 mi North 4.6 mph - N/A   Clear
8:55 PM 55.4 °F 23.7 °F 29% 30.16 in 10.0 mi North 4.6 mph - N/A   Clear
9:15 PM 55.4 °F 23.0 °F 29% 30.16 in 10.0 mi NNE 3.5 mph - N/A   Clear
9:35 PM 55.8 °F 22.6 °F 28% 30.16 in 10.0 mi NNE 3.5 mph - N/A   Clear
9:55 PM 56.3 °F 21.9 °F 26% 30.16 in 10.0 mi NNE 4.6 mph - N/A   Clear
10:15 PM 56.3 °F 21.7 °F 26% 30.15 in 10.0 mi NNE 4.6 mph - N/A   Clear
10:35 PM 55.4 °F 21.7 °F 27% 30.15 in 10.0 mi NNE 4.6 mph - N/A   Clear
10:55 PM 54.7 °F 21.7 °F 28% 30.14 in 10.0 mi NNE 4.6 mph - N/A   Clear
11:15 PM 55.2 °F 21.0 °F 26% 30.14 in 10.0 mi NNE 3.5 mph - N/A   Clear
11:35 PM 55.2 °F 21.0 °F 26% 30.13 in 10.0 mi NNE 4.6 mph - N/A   Clear
11:55 PM 54.5 °F 21.2 °F 27% 30.12 in 10.0 mi NE 4.6 mph - N/A   Clear